EW5676 Weather Reports


Display with metric or nautical units.
time (UTC)temp
F
wind
direction
speed
MPH
gust
MPH
rain 1hr
in
rain 24hr
in
rain mn
in
humidity
%
barometer
mb
20260502223530 56 0 0.0 0.0 0.00 0.00 0.00 61 1016.2
20260502221730 56 341 1.0 3.0 0.00 0.00 0.00 61 1016.3
20260502220830 56 349 1.0 5.0 0.00 0.00 0.00 62 1016.2
20260502215930 56 2 1.0 5.0 0.00 0.00 0.00 63 1016.2
20260502215031 56 349 2.0 5.0 0.00 0.00 0.00 63 1016.2
20260502214130 56 21 2.0 7.0 0.00 0.00 0.00 65 1016.3
20260502212330 55 9 3.0 7.0 0.00 0.00 0.00 65 1016.1
20260502211431 55 45 2.0 6.0 0.00 0.00 0.00 66 1016.2
20260502210531 55 20 4.0 8.0 0.00 0.00 0.00 68 1016.1
20260502205630 55 44 5.0 10.0 0.00 0.00 0.00 67 1016.1
20260502204730 55 19 5.0 9.0 0.00 0.00 0.00 67 1016.1
20260502202930 55 18 6.0 11.0 0.00 0.00 0.00 69 1016.3
20260502202031 55 8 6.0 11.0 0.00 0.00 0.00 68 1016.4
20260502201130 54 23 6.0 12.0 0.00 0.00 0.00 70 1016.5
20260502195330 55 329 6.0 11.0 0.00 0.00 0.00 69 1016.7
20260502194431 55 339 6.0 12.0 0.00 0.00 0.00 68 1016.7
20260502193530 56 333 6.0 12.0 0.00 0.00 0.00 68 1016.8
20260502191729 57 270 5.0 9.0 0.00 0.00 0.00 63 1016.9
20260502190829 57 309 4.0 9.0 0.00 0.00 0.00 64 1017.1
20260502185930 56 310 5.0 8.0 0.00 0.00 0.00 67 1017.1
20260502185030 56 298 6.0 11.0 0.00 0.00 0.00 67 1017.1
20260502184129 56 307 5.0 11.0 0.00 0.00 0.00 65 1017.2
20260502183229 56 294 6.0 9.0 0.00 0.00 0.00 65 1017.2
20260502182330 56 307 5.0 10.0 0.00 0.00 0.00 63 1017.2
20260502180530 56 314 3.0 7.0 0.00 0.00 0.00 66 1017.2
20260502170230 55 294 1.0 4.0 0.00 0.00 0.00 70 1017.8
20260502163529 54 272 2.0 4.0 0.00 0.00 0.00 70 1017.8
20260502162629 54 270 1.0 3.0 0.00 0.00 0.00 70 1017.8
20260502160829 53 273 1.0 3.0 0.00 0.00 0.00 71 1018.1
20260502152329 53 308 3.0 6.0 0.00 0.00 0.00 73 1018.3
20260502151429 53 354 3.0 6.0 0.00 0.00 0.00 74 1018.4
20260502150529 52 12 4.0 7.0 0.00 0.00 0.00 74 1018.4
20260502123228 51 278 1.0 3.0 0.00 0.00 0.00 88 1018.5
20260502122329 51 271 2.0 4.0 0.00 0.00 0.00 88 1018.6
20260502121428 50 244 1.0 4.0 0.00 0.00 0.00 89 1018.6
20260502120528 50 139 2.0 3.0 0.00 0.00 0.00 88 1018.2
20260502115628 50 138 1.0 3.0 0.00 0.00 0.00 89 1018.3
20260502114728 50 143 2.0 4.0 0.00 0.00 0.00 89 1018.2
20260502113828 50 100 1.0 3.0 0.00 0.00 0.00 88 1018.0
20260502112928 50 86 0.0 2.0 0.00 0.00 0.00 88 1017.9
20260502112029 50 225 1.0 2.0 0.00 0.00 0.00 87 1018.5
20260502111127 50 282 2.0 4.0 0.00 0.00 0.00 86 1018.5
20260502110227 50 284 3.0 6.0 0.00 0.00 0.00 86 1018.8
20260502105328 50 289 1.0 4.0 0.00 0.00 0.00 86 1018.4
20260502104428 50 264 1.0 3.0 0.00 0.00 0.00 87 1018.3
20260502103527 50 250 2.0 3.0 0.00 0.00 0.00 87 1018.3
20260502101728 50 210 1.0 5.0 0.00 0.00 0.00 88 1018.0
20260502091428 50 178 3.0 7.0 0.00 0.00 0.00 87 1017.9
20260502070827 49 223 3.0 7.0 0.00 0.00 0.00 85 1018.0
20260502065927 49 199 3.0 7.0 0.00 0.00 0.00 85 1018.2
20260502065027 49 196 3.0 9.0 0.00 0.00 0.00 85 1018.0
20260502064127 50 217 3.0 8.0 0.00 0.00 0.00 84 1018.2
20260502062327 50 215 4.0 13.0 0.00 0.00 0.00 84 1018.6
20260502060526 50 193 4.0 9.0 0.00 0.00 0.00 82 1018.3
20260502055626 50 185 3.0 7.0 0.00 0.00 0.00 81 1018.3
20260502054726 50 181 3.0 6.0 0.00 0.00 0.00 80 1018.2
20260502053826 50 189 3.0 9.0 0.00 0.00 0.00 79 1018.1
20260502052027 50 189 3.0 7.0 0.00 0.00 0.00 78 1018.4
20260502044427 50 204 3.0 8.0 0.00 0.00 0.00 78 1018.6
20260502043526 50 207 4.0 10.0 0.00 0.00 0.00 79 1018.7
20260502042626 50 198 4.0 11.0 0.00 0.00 0.00 79 1018.6
20260502041726 50 187 4.0 10.0 0.00 0.00 0.00 80 1018.7
20260502040826 50 194 3.0 7.0 0.00 0.00 0.00 80 1018.4
20260502035927 49 190 3.0 7.0 0.00 0.00 0.00 79 1018.5
20260502035026 49 203 3.0 8.0 0.00 0.00 0.00 79 1018.5
20260502034128 49 191 3.0 7.0 0.00 0.00 0.00 79 1018.5
20260502033226 49 193 3.0 8.0 0.00 0.00 0.00 79 1018.6
20260502032327 49 190 4.0 8.0 0.00 0.00 0.00 78 1018.6
20260502025626 50 187 4.0 10.0 0.00 0.00 0.00 77 1018.8
20260502024726 50 197 4.0 11.0 0.00 0.00 0.00 77 1018.8
20260502022927 50 184 3.0 9.0 0.00 0.00 0.00 77 1018.8
20260502022026 50 193 4.0 9.0 0.00 0.00 0.00 76 1018.8
20260502021126 50 191 3.0 13.0 0.00 0.00 0.00 75 1018.7
20260502015329 50 191 4.0 8.0 0.00 0.00 0.00 74 1018.8
20260502014426 50 192 4.0 9.0 0.00 0.00 0.00 74 1018.7
20260502013526 50 188 3.0 7.0 0.00 0.00 0.00 74 1018.6
20260502012626 51 190 3.0 6.0 0.00 0.00 0.00 74 1018.5
20260502011726 51 179 3.0 6.0 0.00 0.00 0.00 74 1018.5
20260502010826 51 179 3.0 7.0 0.00 0.00 0.00 74 1018.3
20260502004125 51 188 2.0 7.0 0.00 0.00 0.00 73 1018.4
20260502003225 51 182 2.0 8.0 0.00 0.00 0.00 72 1018.3
20260502002325 51 185 4.0 10.0 0.00 0.00 0.00 71 1018.1
20260502001426 51 186 4.0 10.0 0.00 0.00 0.00 71 1018.0
20260502000526 52 194 5.0 8.0 0.00 0.00 0.00 69 1018.0
20260501235626 52 191 5.0 10.0 0.00 0.00 0.00 68 1017.9
20260501234725 52 201 5.0 11.0 0.00 0.00 0.00 67 1017.8
20260501233825 53 205 5.0 12.0 0.00 0.00 0.00 66 1017.7
20260501232925 53 207 4.0 13.0 0.00 0.00 0.00 65 1017.5
20260501232025 53 216 5.0 11.0 0.00 0.00 0.00 64 1017.5
20260501231125 54 198 5.0 13.0 0.00 0.00 0.00 63 1017.4
20260501230225 55 209 6.0 13.0 0.00 0.00 0.00 62 1017.4
20260501225325 55 218 8.0 16.0 0.00 0.00 0.00 61 1017.4
20260501224425 56 223 7.0 16.0 0.00 0.00 0.00 59 1017.4